Vertical_Velocity
-1 -0 -2 1 1 -0 -2 -1 -3 -4 -2 -6 -7 -3 0 0 1 2 2 3 5 1
1 0 -0 -1 -1 1 -1 -1 -1 -3 -6 -2 -7 -4 -1 2 1 -1 -0 0 3 1
-0 3 4 3 0 -2 0 -1 -2 -2 -3 -5 -4 -4 -3 0 -1 3 2 1 3 2
-1 -3 -2 0 -0 -1 -2 -3 -3 -4 -0 -4 -4 -4 -3 -1 -3 -0 -2 -0 -3 1
-3 -2 -2 -3 -4 -4 -4 -4 -3 -3 -5 -5 -3 -3 -2 -1 1 -0 1 -1 -1 4
-1 -1 -1 -2 -2 -3 -4 -3 -2 -4 -2 -1 -5 -3 -3 -4 -3 -3 -2 -3 -3 -1
-3 -4 -3 -3 -3 -2 -3 -1 -1 -2 -2 -4 -4 -1 -2 -2 -1 -1 -1 -1 -1 -0
1 2 2 1 -0 -2 -3 -2 -1 2 2 -1 -1 1 -3 -1 -2 -0 -2 -2 0 -1
0 -1 -1 -1 1 1 1 1 1 1 1 0 -0 -2 -1 3 3 -1 0 -0 -1 -2
-0 1 1 -0 -0 -1 -1 -1 -1 -1 2 1 1 3 2 -3 -2 2 0 -1 -1 2
1 -1 -1 -0 1 1 2 2 2 2 1 -0 -1 2 2 5 2 -1 -1 2 4 1
-2 -1 0 -1 -2 -3 -2 -2 -2 -1 1 2 1 1 -1 1 -0 3 4 4 2 3
-3 -2 -1 0 1 0 -1 -2 -2 -2 -1 -2 1 2 2 -0 3 1 1 4 2 2
-0 -1 -3 -2 -2 -0 -1 -2 -2 -2 -1 -1 1 1 2 5 2 3 3 3 3 3
Height
5676 5673 5670 5668 5666 5663 5660 5656 5650 5645 5638 5631 5622 5612 5609 5608 5609 5611 5613 5617 5623 5629
5667 5664 5661 5658 5655 5651 5647 5643 5638 5632 5627 5619 5610 5601 5597 5596 5597 5598 5600 5603 5607 5611
5657 5654 5652 5649 5646 5642 5637 5633 5627 5622 5617 5610 5601 5592 5587 5588 5587 5587 5588 5590 5593 5596
5648 5645 5642 5639 5635 5631 5627 5622 5617 5612 5607 5601 5594 5587 5581 5580 5578 5578 5578 5579 5579 5582
5639 5636 5632 5629 5626 5621 5617 5614 5609 5603 5599 5594 5588 5582 5577 5572 5571 5569 5567 5566 5566 5568
5632 5629 5625 5621 5618 5614 5610 5605 5601 5596 5590 5585 5582 5576 5570 5565 5562 5560 5558 5557 5556 5556
5624 5620 5618 5615 5611 5607 5602 5597 5592 5588 5582 5578 5573 5569 5563 5558 5554 5550 5548 5548 5546 5546
5617 5614 5610 5606 5603 5598 5594 5589 5584 5579 5575 5570 5566 5562 5557 5552 5547 5543 5539 5536 5536 5536
5610 5606 5602 5598 5594 5590 5585 5580 5575 5571 5566 5561 5557 5552 5548 5544 5540 5536 5531 5528 5526 5525
5607 5602 5597 5592 5586 5582 5577 5572 5567 5563 5558 5552 5547 5542 5538 5534 5531 5528 5525 5521 5518 5516
5601 5596 5591 5586 5581 5575 5570 5564 5559 5553 5548 5543 5539 5534 5529 5524 5520 5516 5514 5512 5510 5508
5594 5589 5584 5578 5573 5568 5563 5557 5550 5544 5538 5532 5527 5521 5516 5513 5509 5505 5503 5500 5498 5496
5588 5583 5577 5571 5565 5559 5553 5547 5540 5533 5526 5519 5512 5507 5502 5497 5494 5491 5489 5486 5485 5484
5581 5576 5570 5564 5557 5550 5543 5535 5528 5520 5511 5503 5495 5488 5482 5478 5475 5474 5474 5473 5471 5470